Mobile, AL

7:07 AM CST on November 22, 2017 (GMT -0600)
Mobile Regional

Weather History for KMOB - January, 2013

Change the Weather History Date:

Friday, January 25, 2013

  Actual Average Record
Temperature  
Mean Temperature 59 °F 51 °F  
Max Temperature 71 °F 61 °F 77 °F (1962)
Min Temperature 47 °F 40 °F 15 °F (1963)
Degree Days  
Heating Degree Days 6 15  
Month to date heating degree days 279 375  
Since 1 July heating degree days 880 1037  
Cooling Degree Days 0 0  
Month to date cooling degree days 19 0  
Year to date cooling degree days 19 0  
Growing Degree Days 8 (Base 50)    
Moisture  
Dew Point 51 °F    
Average Humidity 75    
Maximum Humidity 96    
Minimum Humidity 53    
Precipitation  
Precipitation 0.00 in 0.18 in 2.45 in (1961)
Month to date precipitation 1.96 4.54  
Year to date precipitation 1.96 4.54  
Snow  
Snow 0.00 in 0.00 in - ()
Month to date snowfall 0.0 0.0  
Since 1 July snowfall 0.0 T  
Snow Depth 0.00 in    
Sea Level Pressure  
Sea Level Pressure 30.22 in    
Wind  
Wind Speed 8 mph (SSW)    
Max Wind Speed 23 mph    
Max Gust Speed 30 mph    
Visibility 9 miles    
Events Fog    
T = Trace of Precipitation, MM = Missing Value Source: NWS Daily Summary

Daily Weather History Graph

Daily Weather History Graph

Search for Another Location

Airport or City:

Trip Planner

Search our weather history database for the weather conditions in past years. The results will help you decide how hot, cold, wet, or windy it might be!

Date:

Astronomy

Jan. 25, 2013 Rise Set
Actual Time 6:47 AM CST 5:23 PM CST
Civil Twilight 6:22 AM CST 5:48 PM CST
Nautical Twilight 5:53 AM CST 6:17 PM CST
Astronomical Twilight 5:24 AM CST 6:46 PM CST
Moon 4:19 PM CST (1/25) 5:26 AM CST (1/25)
Length of Visible Light 11h 26m
Length of Day
10h 35m
Waxing Gibbous, 98% of the Moon is Illuminated
Jan 25
Waxing Gibbous
Jan 26
Full
Feb 3
Last Quarter
Feb 10
New
Feb 17
First Quarter

Hourly Weather History & Observations

Time (CST) Temp. Dew Point Humidity Pressure Visibility Wind Dir Wind Speed Gust Speed Precip Events Conditions
12:56 AM 55.0 °F 51.1 °F 86% 30.27 in 10.0 mi SSW 4.6 mph - N/A   Clear
2:56 AM 52.0 °F 50.0 °F 93% 30.24 in 10.0 mi SSW 5.8 mph - N/A   Partly Cloudy
4:54 AM 51.8 °F 50.0 °F 94% 30.25 in 5.0 mi SSW 3.5 mph - N/A   Scattered Clouds
4:56 AM 52.0 °F 48.9 °F 89% 30.25 in 5.0 mi SSW 3.5 mph - N/A   Scattered Clouds
5:56 AM 48.9 °F 46.9 °F 93% 30.27 in 4.0 mi Calm Calm - N/A   Partly Cloudy
6:56 AM 48.9 °F 46.9 °F 93% 30.27 in 7.0 mi Calm Calm - N/A Fog Fog
7:56 AM 55.0 °F 52.0 °F 89% 30.28 in 5.0 mi Calm Calm - N/A   Scattered Clouds
8:56 AM 62.1 °F 53.1 °F 72% 30.29 in 7.0 mi SSW 8.1 mph - N/A   Scattered Clouds
9:56 AM 68.0 °F 53.1 °F 59% 30.28 in 10.0 mi SSW 12.7 mph - N/A   Scattered Clouds
10:56 AM 69.8 °F 51.8 °F 53% 30.27 in 10.0 mi SSW 23.0 mph 28.8 mph N/A   Mostly Cloudy
11:56 AM 70.0 °F 52.0 °F 53% 30.23 in 10.0 mi SW 23.0 mph 28.8 mph N/A   Mostly Cloudy
12:56 PM 68.0 °F 51.1 °F 55% 30.21 in 10.0 mi South 11.5 mph 23.0 mph N/A   Mostly Cloudy
1:56 PM 69.1 °F 51.1 °F 53% 30.20 in 10.0 mi SSW 13.8 mph 23.0 mph N/A   Mostly Cloudy
2:56 PM 70.0 °F 52.0 °F 53% 30.19 in 10.0 mi SSW 12.7 mph 19.6 mph N/A   Mostly Cloudy
3:56 PM 68.0 °F 52.0 °F 56% 30.18 in 10.0 mi SW 15.0 mph 21.9 mph N/A   Scattered Clouds
4:56 PM 64.9 °F 53.1 °F 65% 30.18 in 10.0 mi SSW 9.2 mph - N/A   Mostly Cloudy
5:56 PM 63.0 °F 53.1 °F 70% 30.18 in 10.0 mi SSW 9.2 mph - N/A   Mostly Cloudy
6:56 PM 61.0 °F 53.1 °F 75% 30.16 in 10.0 mi South 8.1 mph - N/A   Mostly Cloudy
7:56 PM 59.0 °F 53.1 °F 81% 30.18 in 10.0 mi South 3.5 mph - N/A   Scattered Clouds
8:56 PM 55.9 °F 52.0 °F 87% 30.19 in 10.0 mi Calm Calm - N/A   Scattered Clouds
9:56 PM 54.0 °F 51.1 °F 90% 30.20 in 10.0 mi Calm Calm - N/A   Partly Cloudy
10:56 PM 55.0 °F 52.0 °F 89% 30.21 in 10.0 mi SSW 4.6 mph - N/A   Partly Cloudy
11:56 PM 57.0 °F 54.0 °F 89% 30.20 in 10.0 mi SSW 6.9 mph - N/A   Partly Cloudy